ASTRA 5B (EGNOS/PRN 123)

Last updated on Dec. 5, 2020, 6:14 a.m. UTC

1 39617U 14011B   20339.75732109  .00000171  00000-0  00000-0 0  9993
2 39617   0.0595 306.8455 0003756 306.2213 125.0924  1.00269465 24402
UTC
Height (km)
Latitude
Longitude
Inclination
Orbital Period
UTC large
Height (km)
Speed (km/s)
/
Latitude / Longitude
Inclination (degrees)
Orbital Period (minutes)
Azimuth
Elevation
Range (km)
Doppler Factor
iOS Compass Heading
iOS Angle

Next 30 passes for location: Hong Kong

Rise time Rise Azimuth (degrees) Set time Set Azimuth (degrees) Duration Max altitude (degrees)

No matching passes for this satellites